SpaceMobile-004

operational
NORAD ID: 61049 Int'l Des: 2024-163 Owner: ASTS Country: US Constellation: bluewalker
LEOCIRCULAR

关于 SpaceMobile-004

正在加载描述...

实时位置

正在加载3D地球...

即将过境

高度历史

Altitude vs Time

uPlot chart will show altitude changes over time

两行轨道根数

1 61049U 24163E 25354.37437167 .00010768 00000-0 49237-3 0 9993
2 61049 52.9755 51.4821 0010150 337.3302 22.7242 15.21033135 70554
Epoch: Dec 20, 2025 • Age: 10 hours

当前状态

高度 499.8 km
速度 7.62 km/s
星下点 26.15°N, 62.77°E
发射日期 Sep 12, 2024
运行时间 1.2 years
类型 other

技术详情

分类 Payload
质量 1500.00 kg
干质量 1500.00 kg
总质量 1500.00 kg
长度 1.00 m
直径 1.00 m
跨度 9.00 m
形状 Box + plate
制造商 ASTS
平台类型 BW3
阶段状态 In Orbit
所有者/国家 ASTS/US

大型星座

Loading constellations...